Location: Unspecified
(0.0000°N, 0.0000°E)
Time: 12:20:38
(UTC+02:00)

ARIANE DEB (SPELDA) - Visible Passes

Search period start: 21 October 2014 00:00
Search period end: 30 October 2014 23:00
Orbit: 333 x 33283 km, 3.4° (Epoch: 20 October)

Date Brightness Start Highest point End Pass type
(mag) Time Alt. Az. Time Alt. Az. Time Alt. Az.
22 Oct 5.3 06:27:01 10° E 04:22:32 61° ESE 13:05:12 10° E visible
24 Oct 5.0 05:10:22 67° WSW 05:12:23 80° S 14:04:38 10° E visible
26 Oct 5.6 04:57:57 34° W 05:05:40 81° S 13:59:46 10° E visible
27 Oct 5.0 10:41:56 10° W 19:31:25 78° N 19:36:50 16° E visible
28 Oct 6.3 05:45:18 14° W 06:01:21 83° S 14:52:29 10° E visible
29 Oct 3.7 11:43:54 10° W 20:22:19 77° N 17:01:57 10° W visible
